Search your local weather  

 
Advertise Here

Hazardous Weather Conditions

No active alerts for CHICAGO, ILLINOIS

Current Conditions: CHICAGO, ILLINOIS

Fair


78.0 F

Last Updated on Jul 6 2020, 6:52 am CDT
Humidity: 71%
Wind Speed: N 0.0 mph
Barometer 30.01 in
Dewpoint: 68.0 F
Visibility: 10.00 mi
Precip: --
Heat Index: NA
Wind Chill: NA
Current conditions at:

Chicago / Wheeling, Pal-Waukee Airport, IL (KPWK)

Lat: 42.12083 Lon: -87.90472

Local Radar Image active severe weather and emergency alerts image image weather storm and storm spotter reports image weather observation monitoring service image
Local
Radar
Active
Alerts
Storm Reports Weather
Monitoring

Sign-up For Email & Text Message Weather Alert Notification Services


Advertise Here

Observation History for CHICAGO, ILLINOIS


Time Wind
(mph)
Vis
(mi)
Weather Precip (in) Temperature (F) Relative
Humidity
Wind
Chill
(F)
Heat
Index
(F)
Pressure
Air Dwpt altimeter
(in)
sea level
(mb)
6:52 am CDT N 0.0 10.00 Fair -- 78.0 68.0 71% NA NA 30.01 1015.5
5:52 am CDT N 0.0 10.00 Fair -- 73.0 66.9 81% NA NA 29.99 1014.9
4:52 am CDT N 0.0 10.00 Fair -- 73.0 66.0 79% NA NA 29.99 1015.0
3:52 am CDT N 0.0 10.00 Fair -- 75.0 66.0 74% NA NA 29.98 1014.6
2:52 am CDT N 0.0 10.00 Fair -- 78.0 64.9 64% NA NA 29.99 1014.8
1:52 am CDT N 0.0 10.00 Fair -- 76.0 66.0 72% NA NA 29.99 1015.0
12:52 am CDT N 0.0 10.00 Fair -- 78.0 66.0 67% NA NA 30.00 1015.3
11:52 pm CDT N 0.0 10.00 Fair -- 78.0 66.0 67% NA NA 30.01 1015.5
10:52 pm CDT N 0.0 10.00 Partly Cloudy -- 80.0 64.9 60% NA 82 30.00 1015.2
9:52 pm CDT SE 3.5 10.00 Fair -- 81.0 64.0 57% NA 83 29.99 1014.8
8:52 pm CDT SE 3.5 10.00 Fair -- 84.0 63.0 49% NA 85 29.96 1014.0
7:52 pm CDT E 4.6 10.00 Fair -- 86.0 63.0 46% NA 87 29.95 1013.6
6:52 pm CDT 4.6 10.00 Fair -- 88.0 63.0 43% NA 89 29.95 1013.5
5:52 pm CDT E 5.8 10.00 Fair -- 89.0 63.0 42% NA 90 29.94 1013.3
4:52 pm CDT E 6.9 10.00 Fair -- 91.0 64.0 41% NA 92 29.95 1013.8
3:52 pm CDT 3.5 10.00 Fair -- 92.0 64.0 40% NA 94 29.96 1014.1
2:52 pm CDT NE 4.6 10.00 A Few Clouds -- 92.0 63.0 38% NA 93 29.99 1015.0
1:52 pm CDT 10.00 Fair -- 91.0 63.0 39% NA 92 30.01 1015.7
12:52 pm CDT E 4.6 10.00 Fair -- 89.0 63.0 42% NA 90 30.01 1015.8
11:52 am CDT 4.6 10.00 Fair -- 88.0 63.0 43% NA 89 30.03 1016.3
10:52 am CDT 3.5 10.00 Fair -- 88.0 64.0 45% NA 89 30.03 1016.3
9:52 am CDT N 0.0 10.00 Fair -- 84.0 66.0 55% NA 86 30.03 1016.2
8:52 am CDT N 3.5 10.00 Fair -- 84.0 66.9 57% NA 87 30.04 1016.7
7:52 am CDT N 0.0 10.00 Fair -- 79.0 68.0 69% NA NA 30.03 1016.2

Regional Weather Observation

Chicago, Chicago-OHare International Airport, IL (KORD)

A Few Clouds
79.0 F

Chicago/Waukegan Regional Airport, IL (KUGN)

Fair
77.0 F

Chicago, Chicago Midway Airport, IL (KMDW)

A Few Clouds
80.0 F

Kenosha, Kenosha Regional Airport, WI (KENW)

Fair
76.0 F

Chicago / West Chicago, Dupage Airport, IL (KDPA)

Fair
73.0 F

Racine, Batten International Airport, WI (KRAC)

Fair
76.0 F
Advertise Here

Advertise Here